Date String (YYYY-MM-DD hh:mm:ss) UTC,Instrument flags,absolute air pressure of the measurement (hPa),sample flow rate (lpm),inlet stack bypass flow (lpm),air temperature of the measurement (°C),ambient temperature measured by the external sensor (°C),aerosol sample conditioner tube jacket temperature (°C),OPC LED temperature (°C),internal box temperature (°C),relative humidity of the measurement (%),span deviation,mass concentration of particles derived from Lorenz-Mie calculation of OPC scattering (μg/m³),mass concentration of particles derived from Lorenz-Mie calculation of OPC scattering (μg/m³),mass concentration of particles derived from Lorenz-Mie calculation of OPC scattering (μg/m³)
DateTimeUTC,F1_M11,P_M11,Q1_M11,Q2_M11,T1_M11,T2_M11,T3_M11,T4_M11,T5_M11,U1_M11,ZSPAN_M11,X0_M11,X2_M11,X1_M11
2024-04-12 23:00:00,SystemResetWarning,0827.2,5.00,000.00,024.5,023.0,000.0,032.9,026.2,008.6,0000.0,0009.72,0003.43,0001.82
2024-04-12 23:01:00,SystemResetWarning,0827.2,5.00,000.00,024.6,023.4,000.0,032.9,026.4,008.5,0000.0,0009.86,0003.46,0001.81
2024-04-12 23:02:00,SystemResetWarning,0827.2,5.00,000.00,024.7,023.7,000.0,032.9,026.6,008.5,0000.0,0010.12,0003.46,0001.80
2024-04-12 23:03:00,SystemResetWarning,0827.2,5.00,000.00,024.8,024.0,000.0,032.9,026.7,008.3,0000.0,0010.83,0003.49,0001.81
2024-04-12 23:04:00,SystemResetWarning,0827.2,5.00,000.00,024.9,024.2,000.0,033.0,026.8,008.2,0000.0,0010.24,0003.50,0001.82
2024-04-12 23:05:00,SystemResetWarning,0827.2,5.00,000.00,025.0,024.4,000.0,033.0,026.9,008.3,0000.0,0009.79,0003.48,0001.82
2024-04-12 23:06:00,SystemResetWarning,0827.1,5.00,000.00,025.1,024.6,000.0,033.0,027.0,008.4,0000.0,0010.13,0003.52,0001.85
2024-04-12 23:07:00,SystemResetWarning,0827.2,4.99,000.00,025.2,024.7,000.0,033.1,027.2,008.6,0000.0,0010.59,0003.52,0001.84
2024-04-12 23:08:00,SystemResetWarning,0827.2,4.99,000.00,025.3,024.9,000.0,033.1,027.2,008.8,0000.0,0010.69,0003.53,0001.83
2024-04-12 23:09:00,SystemResetWarning,0827.1,5.00,000.00,025.3,024.5,000.0,033.2,027.0,008.7,0000.0,0010.71,0003.54,0001.85
2024-04-12 23:10:00,SystemResetWarning,0827.1,5.01,000.00,025.0,022.4,000.0,033.3,025.8,008.6,0000.0,0011.36,0003.59,0001.86
2024-04-12 23:11:00,SystemResetWarning,0827.1,5.01,000.00,024.6,021.5,000.0,033.3,025.1,008.6,0000.0,0011.15,0003.58,0001.87
2024-04-12 23:12:00,SystemResetWarning,0827.1,5.01,000.00,024.5,021.9,000.0,033.2,025.3,008.9,0000.0,0011.06,0003.56,0001.90
2024-04-12 23:13:00,SystemResetWarning,0827.2,5.00,000.00,024.4,022.3,000.0,033.1,025.6,009.9,0000.0,0010.59,0003.55,0001.91
2024-04-12 23:14:00,SystemResetWarning,0827.2,5.00,000.00,024.5,022.7,000.0,033.0,026.0,010.4,0000.0,0009.90,0003.54,0001.92
2024-04-12 23:15:00,SystemResetWarning,0827.2,5.01,000.00,024.6,023.1,000.0,033.0,026.2,009.1,0000.0,0009.92,0003.53,0001.91
2024-04-12 23:16:00,SystemResetWarning,0827.2,5.00,000.00,024.6,023.4,000.0,033.0,026.4,009.1,0000.0,0009.60,0003.53,0001.93
2024-04-12 23:17:00,SystemResetWarning,0827.2,5.00,000.00,024.7,023.7,000.0,033.0,026.6,009.0,0000.0,0009.44,0003.53,0001.93
2024-04-12 23:18:00,SystemResetWarning,0827.2,5.00,000.00,024.8,024.0,000.0,033.0,026.7,008.9,0000.0,0009.09,0003.57,0001.96
2024-04-12 23:19:00,SystemResetWarning,0827.2,5.00,000.00,024.9,024.2,000.0,033.0,026.8,008.6,0000.0,0010.18,0003.52,0001.97
2024-04-12 23:20:00,SystemResetWarning,0827.2,5.00,000.00,025.0,024.4,000.0,033.0,026.9,008.7,0000.0,0010.57,0003.50,0001.96
2024-04-12 23:21:00,SystemResetWarning,0827.2,5.00,000.00,025.1,024.6,000.0,033.1,027.1,008.2,0000.0,0010.23,0003.46,0001.95
2024-04-12 23:22:00,SystemResetWarning,0827.2,4.99,000.00,025.2,024.7,000.0,033.1,027.2,008.2,0000.0,0009.80,0003.46,0001.95
2024-04-12 23:23:00,SystemResetWarning,0827.2,5.00,000.00,025.3,024.9,000.0,033.2,027.3,008.4,0000.0,0010.33,0003.46,0001.95
2024-04-12 23:24:00,SystemResetWarning,0827.2,5.00,000.00,025.3,024.4,000.0,033.3,026.9,008.2,0000.0,0010.48,0003.47,0001.91
2024-04-12 23:25:00,SystemResetWarning,0827.1,5.00,000.00,024.9,022.2,000.0,033.3,025.7,008.7,0000.0,0010.77,0003.47,0001.90
2024-04-12 23:26:00,SystemResetWarning,0827.2,5.01,000.00,024.5,021.5,000.0,033.3,025.1,008.7,0000.0,0011.81,0003.50,0001.91
2024-04-12 23:27:00,SystemResetWarning,0827.2,5.02,000.00,024.4,021.8,000.0,033.2,025.3,009.0,0000.0,0012.05,0003.52,0001.91
2024-04-12 23:28:00,SystemResetWarning,0827.1,4.99,000.00,024.4,022.3,000.0,033.1,025.7,008.7,0000.0,0013.44,0003.60,0001.91
2024-04-12 23:29:00,SystemResetWarning,0827.2,4.99,000.00,024.5,022.7,000.0,033.0,026.0,008.7,0000.0,0014.09,0003.61,0001.89
2024-04-12 23:30:00,SystemResetWarning,0827.2,5.00,000.00,024.6,023.1,000.0,033.0,026.3,008.6,0000.0,0014.97,0003.62,0001.90
2024-04-12 23:31:00,SystemResetWarning,0827.2,5.01,000.00,024.7,023.5,000.0,033.0,026.5,008.3,0000.0,0013.84,0003.68,0001.91
2024-04-12 23:32:00,SystemResetWarning,0827.2,5.01,000.00,024.8,023.8,000.0,033.0,026.6,008.6,0000.0,0013.67,0003.68,0001.91
2024-04-12 23:33:00,SystemResetWarning,0827.2,5.00,000.00,024.9,024.0,000.0,033.0,026.7,008.7,0000.0,0013.92,0003.67,0001.92
2024-04-12 23:34:00,SystemResetWarning,0827.3,4.99,000.00,024.9,024.3,000.0,033.0,026.9,008.6,0000.0,0014.99,0003.73,0001.93
2024-04-12 23:35:00,SystemResetWarning,0827.3,4.99,000.00,025.0,024.5,000.0,033.1,027.0,008.6,0000.0,0014.73,0003.76,0001.94
2024-04-12 23:36:00,SystemResetWarning,0827.3,5.00,000.00,025.1,024.6,000.0,033.1,027.1,008.9,0000.0,0015.33,0003.77,0001.95
2024-04-12 23:37:00,SystemResetWarning,0827.3,5.02,000.00,025.2,024.8,000.0,033.1,027.2,008.7,0000.0,0015.30,0003.75,0001.95
2024-04-12 23:38:00,SystemResetWarning,0827.3,5.00,000.00,025.3,024.9,000.0,033.2,027.3,008.1,0000.0,0015.25,0003.74,0001.94
2024-04-12 23:39:00,SystemResetWarning,0827.3,4.99,000.00,025.3,024.3,000.0,033.3,026.9,008.2,0000.0,0014.85,0003.69,0001.94
2024-04-12 23:40:00,SystemResetWarning,0827.2,5.00,000.00,024.9,022.2,000.0,033.3,025.7,008.4,0000.0,0014.39,0003.69,0001.96
2024-04-12 23:41:00,SystemResetWarning,0827.1,5.01,000.00,024.6,021.5,000.0,033.3,025.2,008.9,0000.0,0013.74,0003.71,0001.96
2024-04-12 23:42:00,SystemResetWarning,0827.1,5.02,000.00,024.5,021.9,000.0,033.2,025.3,008.8,0000.0,0014.83,0003.72,0001.95
2024-04-12 23:43:00,SystemResetWarning,0827.2,4.99,000.00,024.5,022.4,000.0,033.1,025.7,008.5,0000.0,0015.81,0003.80,0001.96
2024-04-12 23:44:00,SystemResetWarning,0827.2,5.00,000.00,024.5,022.8,000.0,033.0,026.0,008.7,0000.0,0015.72,0003.84,0001.96
2024-04-12 23:45:00,SystemResetWarning,0827.2,5.00,000.00,024.6,023.1,000.0,033.0,026.3,008.7,0000.0,0014.89,0003.82,0001.96
2024-04-12 23:46:00,SystemResetWarning,0827.2,5.00,000.00,024.7,023.5,000.0,033.0,026.5,008.7,0000.0,0014.64,0003.79,0001.95
2024-04-12 23:47:00,SystemResetWarning,0827.2,4.99,000.00,024.8,023.8,000.0,033.0,026.6,008.6,0000.0,0014.76,0003.78,0001.95
2024-04-12 23:48:00,SystemResetWarning,0827.2,5.00,000.00,024.9,024.0,000.0,033.0,026.7,008.4,0000.0,0013.90,0003.80,0001.96
2024-04-12 23:49:00,SystemResetWarning,0827.2,5.00,000.00,025.0,024.2,000.0,033.0,026.9,008.6,0000.0,0013.38,0003.80,0001.97
2024-04-12 23:50:00,SystemResetWarning,0827.2,5.00,000.00,025.0,024.4,000.0,033.1,027.0,008.8,0000.0,0013.09,0003.81,0001.96
2024-04-12 23:51:00,SystemResetWarning,0827.2,5.01,000.00,025.1,024.6,000.0,033.1,027.1,008.8,0000.0,0012.86,0003.85,0001.97
2024-04-12 23:52:00,SystemResetWarning,0827.2,5.00,000.00,025.2,024.8,000.0,033.2,027.2,008.6,0000.0,0013.33,0003.79,0001.94
2024-04-12 23:53:00,SystemResetWarning,0827.2,4.99,000.00,025.3,024.9,000.0,033.2,027.3,008.4,0000.0,0012.02,0003.74,0001.94
2024-04-12 23:54:00,SystemResetWarning,0827.3,5.00,000.00,025.4,024.9,000.0,033.3,027.3,008.2,0000.0,0011.08,0003.68,0001.92
2024-04-12 23:55:00,SystemResetWarning,0827.2,5.00,000.00,025.2,023.2,000.0,033.4,026.2,008.5,0000.0,0010.94,0003.65,0001.93
2024-04-12 23:56:00,SystemResetWarning,0827.1,5.01,000.00,024.7,021.5,000.0,033.4,025.2,008.6,0000.0,0011.10,0003.64,0001.94
2024-04-12 23:57:00,SystemResetWarning,0827.2,5.01,000.00,024.5,021.7,000.0,033.3,025.2,008.7,0000.0,0011.33,0003.63,0001.96
2024-04-12 23:58:00,SystemResetWarning,0827.2,5.00,000.00,024.4,022.1,000.0,033.2,025.5,008.8,0000.0,0011.15,0003.62,0001.98
2024-04-12 23:59:00,SystemResetWarning,0827.2,5.00,000.00,024.5,022.5,000.0,033.1,025.8,009.0,0000.0,0011.97,0003.65,0001.98
